STARLINK-36724, 67914

Orbit data source: Space-Track

STARLINK-36724, 67914 is a payload satellite owned by SpaceX/Seattle (US) in LEO that was launched on Sun, 22 Feb 2026 UTC via an FALCON 9 launch vehicle from the Air Force Eastern Test Range (AFETR). Payload-class satellites include a variety of spacecraft equipped with specific instruments for various scientific and technological missions. These include communications satellites like Starlink; space stations such as the ISS; scientific satellites like the Hubble; Earth observation satellites from companies like Planet Labs, Umbra, and HawkEye 360; GPS; miniature CubeSats for education and research; and military/defense satellites.

Loading next visibility...
Identifier
67914, 2026-036L
Orbit
LEO
Country
Flag of USUS
Related business
Manufacturer
SpaceX/Seattle
Mission
Operational spacecraft
Bus & Motor
STARLINK V2MO, Unknown motor
Mass
575 kg wet, ~530 kg dry
Launch date (UTC)
2026-02-22 (3 weeks ago)
Launch vehicle
FALCON 9
Launch site
Air Force Eastern Test Range (AFETR)
Object type
Payload
Rocket body
Debris
Shape & HBR
Unknown
Radar Cross Section
RCS unknown

Expand to show TLE details & history
Last TLE update: 11 hours ago

TLE from 11 hours ago
0 STARLINK-36724
1 67914U 26036L   26071.86137498 -.00470100  00000-0 -27301-2 0  9995
2 67914  42.9982 230.2691 0002926 303.9718  56.0874 15.78794950  4173
Epoch: 2026-03-12T20:40Z
TLE epoch observation values (Epoch: 2026-03-12T20:40:22.798Z)
Latitude
-0.00003°
Longitude
109.66889°
Altitude
332.529 km
Speed
7.712 km/s
True Right ascension
15h 21m 04s
True Declination
0° 00' 00"
Sunlit
Object was in full shadow at epoch
Visualization orbit readout
Latitude
Unknown
Longitude
Unknown
Altitude
Unknown
Speed
Unknown
Apparent Right ascension
Unknown
Apparent Declination
Unknown
Sunlit
N/A
Visualization observer readout
Local Sidereal Time
12:22:57
Azimuth
Unknown
Elevation
Unknown
Doppler factor
Unknown
Orbital elements
Apogee altitude
337.807 km
Perigee altitude
333.878 km
Semi-major axis
6,713.979 km
Eccentricity
0.00029
Inclination
42.9982°
RAAN
230.2691°
Arg. of periapsis
303.9718°
True anomaly
56.11523°
Mean anomaly
56.0874°
Eccentric anomaly
56.10132°
Mean motion
3.94524 °/min
Orbital period
91.25 mins
BSTAR
-0.0027301
Loading maneuver chart data...
Computing Atmospheric mass density...
Loading historical data...
Loading historical data...
Loading historical data...
Loading historical data...
Loading historical data...
Loading historical data...
Loading historical data...

Documentation

Showing up to 5 results
|